sat.trackr.live / text

‹ back to catalog

STARLINK-5200

NORAD 54103 · 2022-136BE

PAYLOAD ACTIVE UNKNOWN

§ Identity

Operator
Country
US
Launch date
2022-10-20
Launch site
AFETR
Launch vehicle
Mass (kg)
RCS (m²)

Purposes: comms

External: N2YO · Heavens-Above · Gunter

§ Orbital elements

Epoch: 2026-09-20T23:20:42.591552Z

Period
94.01 min
Inclination
53.1588°
Eccentricity
0.0001246
Mean motion
15.31702484 rev/d
Perigee alt
469.9 km
Apogee alt
471.6 km
Semi-major
6,848.9 km
B*
4.0788e-5
RAAN
145.7437°
Arg perigee
93.5134°
Mean anomaly
266.6010°
Rev number
21,690

§ Raw data

STARLINK-52001 54103U 22136BE  26263.97271518  .00000901  00000+0  40788-4 0  99962 54103  53.1588 145.7437 0001246  93.5134 266.6010 15.31702484216908

JSON: /api/v1/satellites/54103 · /tle

For live sub-satellite position, see the globe view (requires WebGL).

§ Visibility from observer

Set your observer location to see the next 7 days of passes ≥ 10°. The values pass through the URL so the page stays shareable.

No JS? Fill the form by hand. The geolocation button needs JavaScript.